TimeMST,TemperatureF,Dew PointF,Humidity,Sea Level PressureIn,VisibilityMPH,Wind Direction,Wind SpeedMPH,Gust SpeedMPH,PrecipitationIn,Events,Conditions,WindDirDegrees,DateUTC
12:53 AM,24.1,19.9,84,30.35,10.0,SW,9.2,-,N/A,,Clear,230,2012-11-15 07:53:00
1:53 AM,24.1,19.0,81,30.35,10.0,SW,12.7,-,N/A,,Clear,220,2012-11-15 08:53:00
2:53 AM,21.0,17.1,85,30.38,10.0,SSW,15.0,-,N/A,,Clear,200,2012-11-15 09:53:00
3:53 AM,21.9,19.0,89,30.36,10.0,SSW,13.8,-,N/A,,Clear,200,2012-11-15 10:53:00
4:53 AM,21.0,18.0,88,30.38,10.0,SSW,9.2,-,N/A,,Clear,200,2012-11-15 11:53:00
5:53 AM,21.0,17.1,85,30.41,10.0,SSW,10.4,-,N/A,,Clear,200,2012-11-15 12:53:00
6:53 AM,21.0,18.0,88,30.41,10.0,South,8.1,-,N/A,,Clear,190,2012-11-15 13:53:00
7:53 AM,18.0,15.1,88,30.44,10.0,SSE,6.9,-,N/A,,Clear,150,2012-11-15 14:53:00
8:53 AM,25.0,19.9,81,30.43,10.0,SSW,8.1,-,N/A,,Clear,200,2012-11-15 15:53:00
9:53 AM,27.0,19.9,75,30.42,10.0,SSW,8.1,-,N/A,,Clear,200,2012-11-15 16:53:00
10:53 AM,30.0,21.9,72,30.39,10.0,SSW,8.1,-,N/A,,Clear,210,2012-11-15 17:53:00
11:53 AM,-9999,-9999,N/A,30.25,-9999.0,North,-9999.0,-,N/A,,Unknown,0,2012-11-15 18:53:00
12:53 PM,-9999,-9999,N/A,30.22,-9999.0,North,-9999.0,-,N/A,,Unknown,0,2012-11-15 19:53:00
1:53 PM,-9999,-9999,N/A,30.19,-9999.0,North,-9999.0,-,N/A,,Unknown,0,2012-11-15 20:53:00
2:53 PM,37.0,24.1,59,30.28,10.0,SSW,4.6,-,N/A,,Clear,200,2012-11-15 21:53:00
3:53 PM,35.1,25.0,67,30.27,10.0,SE,5.8,-,N/A,,Clear,130,2012-11-15 22:53:00
4:53 PM,34.0,24.1,67,30.27,10.0,Calm,Calm,-,N/A,,Clear,0,2012-11-15 23:53:00
5:53 PM,28.0,21.0,75,30.29,10.0,SSE,5.8,-,N/A,,Clear,160,2012-11-16 00:53:00
6:53 PM,26.1,19.9,78,30.28,10.0,South,8.1,-,N/A,,Clear,190,2012-11-16 01:53:00
7:53 PM,28.0,21.0,75,30.27,10.0,SSW,8.1,-,N/A,,Clear,200,2012-11-16 02:53:00
8:53 PM,27.0,19.9,75,30.23,10.0,South,9.2,-,N/A,,Clear,170,2012-11-16 03:53:00
9:53 PM,23.0,19.0,85,30.23,10.0,SE,5.8,-,N/A,,Clear,140,2012-11-16 04:53:00
10:53 PM,26.1,21.0,81,30.19,10.0,ESE,6.9,-,N/A,,Clear,110,2012-11-16 05:53:00
11:53 PM,24.1,19.0,81,30.07,10.0,SE,4.6,-,N/A,,Clear,130,2012-11-16 06:53:00